{"data":{"norad_id":60330,"epoch":"2026-05-25T04:41:26.318400Z","epoch_age_seconds":54810,"freshness":"FRESH","line1":"1 60330U 24136B   26145.19544350 -.00001236  00000+0 -29602-4 0  9993","line2":"2 60330  53.1598  80.6124 0000939 104.4882 255.6223 15.30199092101370","mean_motion":15.30199092,"eccentricity":9.39e-5,"inclination_deg":53.1598,"raan_deg":80.6124,"arg_perigee_deg":104.4882,"mean_anomaly_deg":255.6223,"bstar":-2.9602e-5,"rev_number":10137,"period_min":94.105401547317,"perigee_km":474.5742505311,"apogee_km":475.86131055889,"semimajor_km":6853.354780545,"source":"CELESTRAK","updated_at":"2026-05-25T13:38:19.232706Z"}}